Hourly Weather Roundup
Issued by NWS Central Illinois

Home | Current Version | Previous Version | Text Only | Print | Product List | Glossary On
Versions: 1 2 3 4 5 6 7 8 9 10 11 12 13 14 15 16 17 18 19 20 21 22 23 24 25 26 27 28 29 30 31 32 33 34 35 36 37 38 39 40 41 42 43 44 45 46 47 48 49 50
000
NZUS43 KILX 211610
HWRILX

AREA WEATHER ROUNDUP
NATIONAL WEATHER SERVICE, LINCOLN IL
1100 AM CDT TUE OCT 21 2014


CITY           SKY/WX    TMP DP  RH WIND       PRES   REMARKS
BLOOMINGTON    SUNNY     55  41  59 NE13      30.16S
CHAMPAIGN      MOSUNNY   54  44  69 N12       30.14R
DECATUR        SUNNY     56  43  61 N10       30.15S
FLORA          SUNNY     59  45  58 NE8       30.12S
GALESBURG      SUNNY     54  42  62 NE10      30.19R
JACKSONVILLE   SUNNY     59  44  59 NE9       30.16S
LACON          MOSUNNY   53  40  60 N7        30.17S
LAWRENCEVILLE  PTSUNNY   59  47  64 N12       30.12R
LITCHFIELD     SUNNY     57  46  66 N9        30.15S
$$


CITY           SKY/WX    TMP DP  RH WIND       PRES   REMARKS
LINCOLN        SUNNY     57  44  59 N7        30.15S
MACOMB         SUNNY     55  43  63 NE9       30.21R
MATTOON        MOSUNNY   57  44  62 N9        30.12S
MT CARMEL AP   SUNNY     61  48  63 NE8       30.11S
OLNEY-NOBLE AP SUNNY     59  45  58 N5        30.12S
PARIS          PTSUNNY   56  45  64 N9        30.13R
PEORIA         MOSUNNY   56  42  59 NE9       30.17S
PONTIAC        NOT AVBL
RANTOUL        SUNNY     56  40  53 NE12G17   30.14S
ROBINSON       PTSUNNY   60  47  64 N8        30.13R
SPRINGFIELD    SUNNY     58  45  62 NE12      30.16S
TAYLORVILLE    SUNNY     55  43  62 N9        30.15S
$$

...REGIONAL REPORTS...


CITY           SKY/WX    TMP DP  RH WIND       PRES   REMARKS
CHICAGO O`HARE PTSUNNY   50  40  68 N15       30.17R
KANKAKEE       CLOUDY    52  39  61 N7        30.16S
MOLINE         SUNNY     54  41  61 E8        30.20R
MOUNT VERNON   SUNNY     61  46  59 NE7       30.13S
PITTSFIELD     SUNNY     57  44  62 NE7       30.17S
QUINCY         SUNNY     57  41  55 NE10      30.17R
ROCKFORD       PTSUNNY   49  37  63 NE14      30.23R
$$


CITY           SKY/WX    TMP DP  RH WIND       PRES   REMARKS
BURLINGTON     SUNNY     55  45  68 E10       30.18S
CEDAR RAPIDS   SUNNY     53  41  63 E13       30.19S
DES MOINES     SUNNY     57  44  62 E7        30.16S
KIRKSVILLE     SUNNY     58  48  69 E7        30.16F
OTTUMWA        SUNNY     56  44  64 SE10      30.17S
ST LOUIS       SUNNY     60  45  57 E5        30.14S
$$


CITY           SKY/WX    TMP DP  RH WIND       PRES   REMARKS
TERRE HAUTE    CLOUDY    55  42  61 N9        30.11S
EVANSVILLE     SUNNY     61  45  55 NE9       30.10S
INDIANAPOLIS   PTSUNNY   52  44  74 N13       30.10R
LAFAYETTE      MOSUNNY   55  42  61 N12G20    30.12R
MADISON        CLOUDY    47  37  68 NE12      30.23R
MILWAUKEE      CLOUDY    48  39  71 N10       30.20R
$$





USA.gov is the U.S. government's official web portal to all federal, state and local government web resources and services.